Location: Waco, TX
(31.5480°N, 97.1670°W)
Time: 09:20:53
(UTC-05:00)

ISS - Pass Details

Date: 12 October 2019
Orbit: 411 x 421 km, 51.6° (Epoch: 18 October)

Event Time Altitude Azimuth Distance (km) Brightness Sun altitude
Rises 12:22:28 0° 262° (W) 2,350 0.0 49.0°
Reaches altitude 10° 12:25:09 10° 286° (WNW) 1,487 -1.1 49.2°
Maximum altitude 12:27:17 16° 326° (NW) 1,185 -1.7 49.3°
Drops below altitude 10° 12:29:25 10° 5° (N) 1,487 -1.2 49.5°
Sets 12:32:07 0° 29° (NNE) 2,350 -0.2 49.6°
